Seattle Boeing, WA
on Sunday, February 10, 2013

Sunday
Previous Day Next Day
Daily Summary
 ActualAverage (KSEA)Record (KSEA)
Temperature
Mean Temperature °F 43°F  
Max Temperature 46°F 49°F 65°F (1963)
Min Temperature 37°F 37°F 24°F (1982)
Degree Days
Heating Degree Days 24 22  
Month to date heating degree days 220  
Since 1 July heating degree days 2869  
Cooling Degree Days 0 0  
Month to date cooling degree days 0  
Year to date cooling degree days 0  
Moisture
Dew Point 36°F   
Average Humidity 79    
Maximum Humidity 93    
Minimum Humidity 61    
Precipitation
Precipitation 0.00 in 0.13 in 0.96 in (1949)
Month to date precipitation 1.33  
Year to date precipitation 6.90  
Snow
Snow 0.00 in in 5.10 in (1959)
Month to date snowfall  
Since 1 July snowfall  
Snow Depth in   
Wind
Wind Speed 2 mph   
Max Wind Speed 6 mph   
Max Gust Speed mph   
Visibility 7 miles   
Events Fog   

Key: T is trace of precipitation, MM is missing value
Source: NWS Daily Summary
Time(PST)TemperatureDew PointHumidity Pressure Visibility Wind DirectionWind SpeedGust SpeedPrecipitationEvents Conditions
12:53 AM 44.1°F 39.9°F 85% 30.35 in 9.0 miles NNE 3.5 mph - N/A   Overcast
1:53 AM 44.1°F 39.0°F 82% 30.35 in 9.0 miles Calm Calm - N/A   Overcast
2:53 AM 44.1°F 39.0°F 82% 30.35 in 9.0 miles Calm Calm - N/A   Overcast
3:53 AM 43.0°F 37.0°F 80% 30.35 in 10.0 miles Calm Calm - N/A   Mostly Cloudy
4:53 AM 41.0°F 36.0°F 82% 30.36 in 10.0 miles Calm Calm - N/A   Mostly Cloudy
5:53 AM 39.9°F 36.0°F 86% 30.35 in 9.0 miles Calm Calm - N/A   Partly Cloudy
6:53 AM 39.0°F 35.1°F 86% 30.36 in 6.0 miles NE 3.5 mph - N/A   Scattered Clouds
7:23 AM 37.4°F 35.6°F 93% 30.37 in 2.0 miles Calm Calm - N/A   Mostly Cloudy
7:34 AM 37.4°F 35.6°F 93% 30.37 in 0.5 miles Calm Calm - N/A Fog Fog
7:53 AM 37.9°F 36.0°F 93% 30.38 in 0.2 miles Calm Calm - N/A Fog Fog
8:53 AM 37.9°F 36.0°F 93% 30.38 in 0.2 miles Calm Calm - N/A Fog Fog
9:53 AM 39.0°F 36.0°F 89% 30.38 in 0.5 miles Calm Calm - N/A Fog Fog
10:09 AM 39.2°F 35.6°F 87% 30.38 in 1.0 miles ENE 3.5 mph - N/A   Overcast
10:53 AM 39.9°F 37.0°F 89% 30.38 in 2.0 miles Calm Calm - N/A   Overcast
11:22 AM 42.8°F 37.4°F 81% 30.38 in 4.0 miles Calm Calm - N/A   Haze
11:53 AM 43.0°F 37.0°F 80% 30.37 in 6.0 miles West 3.5 mph - N/A   Haze
12:53 PM 46.0°F 35.1°F 66% 30.36 in 10.0 miles NW 4.6 mph - N/A   Scattered Clouds
1:53 PM 46.9°F 34.0°F 61% 30.35 in 10.0 miles NW 5.8 mph - N/A   Scattered Clouds
2:53 PM 46.0°F 35.1°F 66% 30.35 in 10.0 miles WNW 5.8 mph - N/A   Mostly Cloudy
3:53 PM 45.0°F 36.0°F 71% 30.35 in 10.0 miles NW 4.6 mph - N/A   Mostly Cloudy
4:53 PM 45.0°F 35.1°F 68% 30.35 in 10.0 miles WNW 4.6 mph - N/A   Overcast
5:53 PM 45.0°F 35.1°F 68% 30.35 in 10.0 miles Calm Calm - N/A   Overcast
6:53 PM 45.0°F 35.1°F 68% 30.35 in 10.0 miles NW 3.5 mph - N/A   Overcast
7:53 PM 45.0°F 34.0°F 65% 30.35 in 10.0 miles Calm Calm - N/A   Overcast
8:53 PM 45.0°F 36.0°F 71% 30.35 in 10.0 miles Calm Calm - N/A   Overcast
9:53 PM 45.0°F 37.0°F 74% 30.33 in 10.0 miles Calm Calm - N/A   Overcast
10:53 PM 45.0°F 37.0°F 74% 30.33 in 10.0 miles Calm Calm - N/A   Overcast
11:53 PM 45.0°F 37.0°F 74% 30.34 in 10.0 miles Calm Calm - N/A   Overcast
Moon Phase
Feb. 10 Feb. 17 Feb. 25 Mar. 04 Mar. 11
Sunrise:07:22 AM (PST) Moon Rise:07:09 AM (PST)2/10
Sunset:05:25 PM (PST) Moon Set:06:30 PM (PST)2/10

Copyright © 2014 The Weather Underground, Inc.